Regional Weather Roundup
Issued by NWS

Home | Current Version | Previous Version | Graphics & Text | Print | Product List | Glossary On
Versions: 1 2 3 4 5 6 7 8 9 10 11 12 13 14 15 16 17 18 19 20 21 22 23 24 25 26 27 28 29 30 31 32 33 34 35 36 37 38 39 40 41 42 43 44 45 46 47 48 49 50
000
ASUS43 KLMK 211510
RWRKY
KENTUCKY REGIONAL WEATHER ROUNDUP
NATIONAL WEATHER SERVICE LOUISVILLE KY
1000 AM EST SUN DEC 21 2014

NOTE "FAIR" INDICATES FEW OR NO CLOUDS BELOW 12,000 FEET
WITH NO SIGNIFICANT WEATHER AND/OR OBSTRUCTIONS TO VISIBILITY.

KYZ001>023-026-027-061>063-070>075-211600-
WESTERN AND SOUTH CENTRAL KENTUCKY

CITY           SKY/WX    TMP DP  RH WIND       PRES   REMARKS
PADUCAH        SUNNY     32  28  85 E3        30.24F FOG
HENDERSON      SUNNY     30  27  86 E3        30.28R
OWENSBORO      SUNNY     31  28  88 E6        30.27F FOG     WCI  25
HOPKINSVILLE   SUNNY     33  28  83 E6        30.24S WCI  27
BOWLING GREEN  SUNNY     32  27  81 NE6       30.27S HAZE    WCI  26
GLASGOW        SUNNY     32  29  86 E6        30.26S FOG     WCI  27
$$

KYZ024-025-028>034-038-045-046-053-211600-
NORTH CENTRAL KENTUCKY

CITY           SKY/WX    TMP DP  RH WIND       PRES   REMARKS
LOUISVILLE/SDF PTSUNNY   31  27  85 E5        30.30F FOG     WCI  26
LOUISVILLE/LOU SUNNY     32  27  81 E7        30.31S WCI  26
FORT KNOX      SUNNY     29  26  88 E8        30.27S WCI  21
$$

KYZ035>037-039>044-047>052-055>060-089>105-211600-
NORTHEAST KENTUCKY

CITY           SKY/WX    TMP DP  RH WIND       PRES   REMARKS
LEXINGTON      SUNNY     31  27  85 E10       30.29S WCI  22
COVINGTON      CLOUDY    30  22  72 SE6       30.31R WCI  24
FRANKFORT      SUNNY     29  25  85 E5        30.30R FOG     WCI  24
$$

KYZ054-064>069-076>088-106>120-211600-
SOUTHEAST KENTUCKY

CITY           SKY/WX    TMP DP  RH WIND       PRES   REMARKS
JACKSON        SUNNY     30  25  81 VRB3      30.27S
LONDON         SUNNY     32  27  81 E6        30.27S WCI  26
SOMERSET       SUNNY     30  28  93 CALM      30.29S
MIDDLESBORO    PTSUNNY   26  26 100 CALM      30.29R FOG
MONTICELLO     SUNNY     31  28  88 CALM      30.29F FOG
$$



USA.gov is the U.S. government's official web portal to all federal, state and local government web resources and services.